#timestamp,LO_Frequency,Hit,StdDev 
1562565615.2,286046997.9,N
1562565635.1,286046997.6,N
1562565636.0,286046997.6,N
1562565655.8,286046997.6,N
1562565675.7,286046995.1,Y
1562565695.5,286046999.6,P
1562565715.3,286046999.1,N
1562565735.2,286046997.3,P
1562565755.0,286046999.0,N
1562565755.9,286046999.0,N
1562565775.7,286046999.1,N
1562565795.6,286046998.7,N
1562565815.4,286046999.6,N
1562565835.3,286046998.3,N
1562565855.1,286046996.9,Y
1562565856.0,286046996.9,P
1562565875.8,286046998.7,N
1562565895.7,286047000.7,N
1562565915.5,286046999.2,N
1562565935.4,286046998.8,N
1562565955.2,286047000.8,N
1562565975.0,286047002.6,N
1562565975.9,286047002.6,N
1562565995.8,286047001.7,N
1562566015.6,286047000.8,N
1562566035.4,286046998.7,N
1562566055.3,286046999.6,N
1562566075.1,286046997.0,N
1562566095.9,286046996.9,N
1562566115.7,286046996.8,N
1562566135.5,286046996.5,N
1562566155.4,286046998.9,N
1562566175.2,286046999.5,N
1562566195.0,286046999.2,N
1562566195.9,286046999.2,N
1562566215.8,286046998.2,N
1562566235.6,286047000.5,N
1562566255.5,286046998.1,N
1562566275.3,286047000.7,N
1562566295.1,286047000.9,N
1562566315.9,286046998.5,N
1562566335.7,286047001.0,N
1562566355.6,286047002.8,N
1562566375.4,286047000.0,N
1562566395.2,286047000.7,N
1562566415.1,286047002.0,N
1562566416.0,286047002.0,N
1562566435.8,286047000.8,N
1562566455.6,286046998.3,N
1562566475.5,286047000.1,N
1562566495.3,286047000.1,N
1562566515.2,286046998.7,N
1562566535.0,286046999.7,N
1562566535.9,286046999.7,N
1562566555.8,286047002.3,N
1562566575.6,286047003.6,N
1562566595.4,286047004.7,N
1562566615.3,286047003.3,N
1562566635.1,286047007.6,Y
1562566655.9,286047003.1,P
1562566675.7,286047004.9,P
1562566695.5,286047005.8,N
1562566715.4,286047005.8,N
1562566735.2,286047003.0,N
1562566755.0,286047005.5,N
1562566756.0,286047005.5,N
1562566775.8,286047003.4,N
1562566795.6,286047003.6,N
1562566815.5,286047001.9,N
1562566835.3,286047000.4,N
1562566855.1,286047002.7,N
1562566875.9,286047002.5,N
1562566895.7,286047001.6,N
1562566915.6,286047002.1,N
1562566935.4,286047002.0,N
1562566955.2,286047005.8,Y
1562566975.1,286047002.8,P
1562566976.0,286047002.8,P
1562566995.8,286046999.9,N
1562567015.6,286047001.4,N
1562567035.5,286047000.7,N
1562567055.3,286046998.2,N
1562567075.2,286047000.5,N
1562567095.9,286046999.2,N
1562567115.7,286046996.6,N
1562567135.6,286046997.1,N
1562567155.4,286046997.8,N
1562567175.2,286046997.7,N
1562567195.1,286046999.4,N
1562567196.0,286046999.4,N
1562567215.8,286047000.5,N
1562567235.7,286046998.8,N
1562567255.5,286046997.8,N
1562567275.3,286046999.1,N
1562567295.2,286047000.9,N
1562567315.0,286046999.3,N
1562567315.9,286046999.3,N
1562567335.8,286046997.4,N
1562567355.6,286046997.0,N
1562567375.4,286046999.3,N
1562567395.3,286046997.2,N
1562567415.1,286046995.0,N
1562567435.9,286046995.1,N
1562567455.7,286046997.9,N
1562567475.5,286046997.5,N
1562567495.4,286046997.5,N
1562567515.2,286046997.0,N
1562567535.0,286046996.6,N
1562567535.9,286046996.6,N
1562567555.8,286046999.3,N
1562567575.6,286046999.7,N
1562567595.5,286047000.2,N
1562567615.3,286046999.8,N
1562567635.1,286047000.7,N
1562567655.9,286046998.3,N
1562567675.7,286046998.7,N
1562567695.6,286046999.5,N
1562567715.4,286046998.4,N
1562567735.2,286046998.1,N
1562567755.1,286047000.5,N
1562567756.0,286047000.5,N
1562567775.8,286046998.2,N
1562567795.7,286046998.3,N
1562567815.5,286046999.7,N
1562567835.3,286046999.7,N
1562567855.2,286047002.6,N
1562567875.0,286047001.6,N
1562567875.9,286047001.6,N
1562567895.8,286047000.7,N
1562567915.7,286047000.3,N
1562567935.5,286046999.7,N
1562567955.4,286047001.2,N
1562567975.2,286047000.5,N
1562567995.0,286047000.9,N
1562567995.9,286047000.9,N
1562568015.8,286047000.5,N
1562568035.6,286047000.5,N
1562568055.5,286047002.3,N
1562568075.3,286047001.5,N
1562568095.1,286047000.1,N
1562568115.9,286047002.0,N
1562568135.7,286047004.4,Y
1562568155.5,286047001.6,P
1562568175.4,286047002.5,P
1562568195.2,286047000.6,N
1562568215.0,286046998.6,N
1562568216.0,286046998.6,N
1562568235.8,286047000.9,N
1562568255.6,286047001.0,N
1562568275.5,286046999.2,N
1562568295.3,286046998.9,N
1562568315.1,286046998.1,N
1562568335.9,286046998.6,N
1562568355.7,286047000.6,N
1562568375.6,286047000.8,N
1562568395.4,286047000.9,N
1562568415.2,286047000.6,N
1562568435.1,286047000.7,N
1562568436.0,286047000.7,N
1562568455.8,286047004.1,Y
1562568475.2,286047002.3,P
1562568495.0,286047000.7,N
1562568495.9,286047000.7,N
1562568515.7,286046998.2,N
1562568535.6,286047000.9,N
1562568555.4,286046998.6,N
1562568575.3,286046997.2,N
1562568595.1,286046998.4,N
1562568615.8,286046999.5,N
1562568635.7,286046996.9,N
1562568655.5,286046999.5,N
1562568675.4,286046997.5,N
1562568695.2,286046998.0,N
1562568715.0,286046995.0,Y
1562568715.9,286046995.0,P
1562568735.8,286046996.9,N
1562568755.6,286046999.0,N
1562568775.5,286046999.0,N
1562568795.3,286046996.7,N
1562568815.1,286046997.1,N
1562568835.9,286046999.4,N
1562568855.7,286046998.7,N
1562568875.5,286046996.6,N
1562568895.4,286046999.4,N
1562568915.2,286046996.6,N
1562568935.1,286046997.7,N
1562568936.0,286046997.7,N
1562568955.8,286046999.6,N
1562568975.6,286046994.9,Y
1562568995.5,286046999.4,P
1562569015.3,286046999.0,N
1562569065.2,286046998.7,E
1562569075.1,286046998.6,N
1562569095.9,286047000.6,P
1562569115.7,286047001.1,N
1562569135.5,286047000.9,N
1562569155.4,286047001.2,N
1562569175.2,286047000.4,N
1562569195.0,286047001.0,N
1562569195.9,286047001.0,N
